• In Czech Republic
  • List of Countries
  • For 7 days
  • Water Temperature
  • Satellite Maps
  • Weather Map
  • Weather Widgets
  • user-avatar
    Login

    Hourly Weather Qala i Naw

    Today, 17 February, Saturday

    Time Temperature Precipitation Wind Pressure Humidity
    00:00 +6°C° 0 mm 1 mps 688 mmHg 71%
    01:00 +5°C° 0 mm 1 mps 687 mmHg 72%
    02:00 +5°C° 0 mm 1 mps 687 mmHg 72%
    03:00 +5°C° 0 mm 1 mps 687 mmHg 72%
    04:00 +4°C° 0 mm 1 mps 686 mmHg 72%
    05:00 +4°C° 0 mm 1 mps 686 mmHg 71%
    06:00 +4°C° 0 mm 1 mps 686 mmHg 70%
    07:00 +4°C° 0 mm 1 mps 686 mmHg 69%
    08:00 +6°C° 0 mm 1 mps 686 mmHg 61%
    09:00 +8°C° 0 mm 1 mps 686 mmHg 52%
    10:00 +10°C° 0 mm 1 mps 686 mmHg 45%
    11:00 +10°C° 0 mm 2 mps 686 mmHg 42%
    12:00 +12°C° 0 mm 2 mps 685 mmHg 38%
    13:00 +13°C° 0 mm 2 mps 685 mmHg 34%
    14:00 +12°C° 0 mm 3 mps 684 mmHg 35%
    15:00 +12°C° 0 mm 3 mps 684 mmHg 35%
    16:00 +13°C° 0 mm 3 mps 684 mmHg 36%
    17:00 +13°C° 0 mm 2 mps 684 mmHg 40%
    18:00 +12°C° 0 mm 2 mps 683 mmHg 44%
    19:00 +11°C° 0 mm 1 mps 683 mmHg 49%
    20:00 +10°C° 0 mm 1 mps 683 mmHg 51%
    21:00 +10°C° 0 mm 1 mps 683 mmHg 52%
    22:00 +9°C° 0 mm 1 mps 683 mmHg 54%
    23:00 +9°C° 0 mm 1 mps 682 mmHg 56%

    Tomorrow, 18 February, Sunday

    Time Temperature Precipitation Wind Pressure Humidity
    00:00 +9°C° 0 mm 1 mps 682 mmHg 57%
    01:00 +9°C° 0 mm 1 mps 682 mmHg 59%
    02:00 +7°C° 0 mm 0 mps 682 mmHg 59%
    03:00 +7°C° 0 mm 0 mps 681 mmHg 60%
    04:00 +7°C° 0 mm 0 mps 681 mmHg 60%
    05:00 +7°C° 0 mm 0 mps 681 mmHg 61%
    06:00 +7°C° 0 mm 0 mps 681 mmHg 62%
    07:00 +7°C° 0 mm 0 mps 681 mmHg 63%
    08:00 +10°C° 0 mm 1 mps 682 mmHg 56%
    09:00 +12°C° 0 mm 1 mps 682 mmHg 50%
    10:00 +14°C° 0 mm 1 mps 682 mmHg 44%
    11:00 +16°C° 0 mm 1 mps 682 mmHg 41%
    12:00 +17°C° 0 mm 2 mps 682 mmHg 39%
    13:00 +18°C° 0 mm 2 mps 681 mmHg 36%
    14:00 +18°C° 0 mm 2 mps 681 mmHg 36%
    15:00 +18°C° 0 mm 2 mps 680 mmHg 37%
    16:00 +18°C° 0 mm 2 mps 680 mmHg 37%
    17:00 +17°C° 0 mm 2 mps 680 mmHg 40%
    18:00 +16°C° 0 mm 2 mps 680 mmHg 44%
    19:00 +15°C° 0 mm 1 mps 680 mmHg 48%
    20:00 +15°C° 0 mm 1 mps 679 mmHg 47%
    21:00 +15°C° 0 mm 1 mps 679 mmHg 47%
    22:00 +15°C° 0 mm 1 mps 679 mmHg 47%
    23:00 +14°C° 0 mm 1 mps 679 mmHg 47%

    Day after tomorrow, 19 February, Monday

    Time Temperature Precipitation Wind Pressure Humidity
    00:00 +14°C° 0 mm 2 mps 678 mmHg 47%
    01:00 +14°C° 0 mm 2 mps 678 mmHg 46%
    02:00 +14°C° 0 mm 2 mps 677 mmHg 46%
    03:00 +14°C° 0 mm 2 mps 677 mmHg 45%
    04:00 +14°C° 0 mm 2 mps 677 mmHg 45%
    05:00 +13°C° 0 mm 3 mps 677 mmHg 44%
    06:00 +14°C° 0 mm 3 mps 677 mmHg 42%
    07:00 +14°C° 0 mm 3 mps 677 mmHg 40%
    08:00 +17°C° 0 mm 4 mps 678 mmHg 36%
    09:00 +20°C° 0 mm 4 mps 678 mmHg 31%
    10:00 +22°C° 0 mm 5 mps 678 mmHg 26%
    11:00 +23°C° 0 mm 5 mps 678 mmHg 24%
    12:00 +26°C° 0 mm 5 mps 678 mmHg 22%
    13:00 +27°C° 0 mm 6 mps 678 mmHg 20%
    14:00 +26°C° 0.1 mm 5 mps 678 mmHg 21%
    15:00 +26°C° 0.1 mm 4 mps 677 mmHg 23%
    16:00 +25°C° 0.1 mm 4 mps 677 mmHg 25%
    17:00 +21°C° 0.4 mm 4 mps 677 mmHg 32%
    18:00 +18°C° 0.4 mm 4 mps 677 mmHg 40%
    19:00 +15°C° 0.4 mm 4 mps 677 mmHg 47%
    20:00 +13°C° 0.1 mm 4 mps 677 mmHg 49%
    21:00 +12°C° 0.1 mm 4 mps 677 mmHg 52%
    22:00 +11°C° 0.1 mm 4 mps 677 mmHg 54%
    23:00 +10°C° 0.1 mm 4 mps 677 mmHg 57%

    20 February, Tuesday

    Time Temperature Precipitation Wind Pressure Humidity
    00:00 +8°C° 0.1 mm 4 mps 677 mmHg 60%
    01:00 +8°C° 0.1 mm 3 mps 677 mmHg 64%
    02:00 +8°C° 0.1 mm 3 mps 676 mmHg 67%
    03:00 +7°C° 0.1 mm 3 mps 676 mmHg 71%
    04:00 +7°C° 0.1 mm 3 mps 676 mmHg 75%
    05:00 +5°C° 0.2 mm 3 mps 676 mmHg 77%
    06:00 +5°C° 0.2 mm 3 mps 677 mmHg 79%
    07:00 +5°C° 0.2 mm 3 mps 677 mmHg 80%
    08:00 +7°C° 0.2 mm 3 mps 677 mmHg 78%
    09:00 +7°C° 0.2 mm 3 mps 678 mmHg 76%
    10:00 +8°C° 0.2 mm 3 mps 678 mmHg 74%
    11:00 +7°C° 0.1 mm 4 mps 679 mmHg 74%
    12:00 +7°C° 0.1 mm 4 mps 679 mmHg 73%
    13:00 +7°C° 0.1 mm 5 mps 679 mmHg 73%
    14:00 +7°C° 0.1 mm 4 mps 679 mmHg 74%
    15:00 +8°C° 0.1 mm 3 mps 680 mmHg 76%
    16:00 +8°C° 0.1 mm 3 mps 680 mmHg 77%
    17:00 +7°C° 0 mm 2 mps 680 mmHg 78%
    18:00 +7°C° 0 mm 2 mps 681 mmHg 79%
    19:00 +7°C° 0 mm 2 mps 681 mmHg 81%
    20:00 +6°C° 0 mm 2 mps 681 mmHg 81%
    21:00 +7°C° 0 mm 1 mps 681 mmHg 81%
    22:00 +7°C° 0 mm 1 mps 681 mmHg 81%
    23:00 +7°C° 0 mm 1 mps 681 mmHg 81%

    21 February, Wednesday

    Time Temperature Precipitation Wind Pressure Humidity
    00:00 +7°C° 0 mm 1 mps 681 mmHg 81%
    01:00 +6°C° 0 mm 1 mps 681 mmHg 80%
    02:00 +6°C° 0 mm 1 mps 681 mmHg 79%
    03:00 +6°C° 0 mm 1 mps 681 mmHg 78%
    04:00 +6°C° 0 mm 1 mps 681 mmHg 77%
    05:00 +6°C° 0 mm 1 mps 681 mmHg 76%
    06:00 +6°C° 0 mm 1 mps 681 mmHg 74%
    07:00 +6°C° 0 mm 1 mps 682 mmHg 73%
    08:00 +8°C° 0 mm 1 mps 682 mmHg 64%
    09:00 +10°C° 0 mm 1 mps 682 mmHg 55%
    10:00 +12°C° 0 mm 1 mps 683 mmHg 46%
    11:00 +13°C° 0 mm 2 mps 682 mmHg 43%
    12:00 +14°C° 0 mm 2 mps 682 mmHg 40%
    13:00 +16°C° 0 mm 2 mps 682 mmHg 37%
    14:00 +16°C° 0 mm 3 mps 681 mmHg 37%
    15:00 +16°C° 0 mm 3 mps 681 mmHg 38%
    16:00 +16°C° 0 mm 3 mps 681 mmHg 38%
    17:00 +15°C° 0 mm 2 mps 681 mmHg 44%
    18:00 +13°C° 0 mm 2 mps 681 mmHg 49%
    19:00 +12°C° 0 mm 1 mps 681 mmHg 55%
    20:00 +12°C° 0 mm 1 mps 681 mmHg 55%
    21:00 +12°C° 0 mm 1 mps 681 mmHg 56%
    22:00 +11°C° 0 mm 1 mps 681 mmHg 56%
    23:00 +11°C° 0 mm 1 mps 680 mmHg 56%

    22 February, Thursday

    Time Temperature Precipitation Wind Pressure Humidity
    00:00 +11°C° 0 mm 1 mps 680 mmHg 55%
    01:00 +11°C° 0 mm 1 mps 680 mmHg 55%
    02:00 +10°C° 0 mm 1 mps 680 mmHg 56%
    03:00 +10°C° 0 mm 1 mps 679 mmHg 56%
    04:00 +9°C° 0 mm 1 mps 679 mmHg 57%
    05:00 +9°C° 0 mm 1 mps 679 mmHg 57%
    06:00 +9°C° 0 mm 1 mps 679 mmHg 57%
    07:00 +9°C° 0 mm 1 mps 680 mmHg 57%
    08:00 +11°C° 0 mm 1 mps 680 mmHg 50%
    09:00 +13°C° 0 mm 1 mps 681 mmHg 43%
    10:00 +15°C° 0 mm 2 mps 681 mmHg 35%
    11:00 +16°C° 0 mm 2 mps 681 mmHg 34%
    12:00 +16°C° 0 mm 3 mps 680 mmHg 33%
    13:00 +17°C° 0 mm 3 mps 680 mmHg 32%
    14:00 +17°C° 0 mm 3 mps 680 mmHg 34%
    15:00 +17°C° 0 mm 3 mps 680 mmHg 35%
    16:00 +17°C° 0 mm 3 mps 680 mmHg 37%
    17:00 +16°C° 0 mm 3 mps 680 mmHg 42%
    18:00 +14°C° 0 mm 3 mps 680 mmHg 47%
    19:00 +14°C° 0 mm 2 mps 680 mmHg 52%
    20:00 +13°C° 0 mm 2 mps 680 mmHg 54%
    21:00 +12°C° 0 mm 1 mps 680 mmHg 57%
    22:00 +12°C° 0 mm 1 mps 680 mmHg 59%
    23:00 +11°C° 0 mm 1 mps 680 mmHg 61%
    Show more